Orbital Elements at Epoch 2459200.5 (2020-Dec-17.0) TDB
Reference: JPL 19 (heliocentric ecliptic J2000)
Element | Value | Uncertainty (1-sigma) | Units |
e | .67502982874849 | 8.8452e-07 | |
a | .9551436256518574 | 6.6173e-08 | au |
q | .3103931875978722 | 8.6307e-07 | au |
i | 20.54245916200126 | 4.2075e-05 | deg |
node | 7.545070006809635 | 0.00012962 | deg |
peri | 67.00166430723266 | 0.00011883 | deg |
M | 134.0505730923721 | 0.00020171 | deg |
tp | 2459073.539792474349 (2020-Aug-12.03979247) | 0.00017911 | TDB |
period | 340.9584431820304 0.93 | 3.5433e-05 9.701e-08 | d yr |
n | 1.055847148527141 | 1.0972e-07 | deg/d |
Q | 1.599894063705843 | 1.1084e-07 | au |
|
| | Orbit Determination Parameters
Additional Information
|